Starlink 32317

operational
NORAD ID: 60918 Int'l Des: 2024-154 Owner: SPXS Country: US Constellation: starlink
LEOCIRCULAR

Über Starlink 32317

Beschreibung wird geladen...

Live-Position

3D-Globus wird geladen...

Nächste Überflüge

Höhenverlauf

Altitude vs Time

uPlot chart will show altitude changes over time

Zweizeiliger Elementsatz

1 60918U 24154R 26034.54706849 -.00003499 00000-0 -10603-3 0 9998
2 60918 53.1606 82.7126 0001051 78.5250 281.5868 15.30206465 81107
Epoch: 3. Feb. 2026 • Age: 14 hours

Aktueller Status

Höhe 476.3 km
Geschwindigkeit 7.63 km/s
Subsatellitenpunkt 29.52°N, 80.44°W
Startdatum 31. Aug. 2024
Alter 1.4 years
Typ internet

Technische Details

Klassifizierung Payload
Masse 730.00 kg
Trockenmasse 700.00 kg
Gesamtmasse 730.00 kg
Länge 0.30 m
Durchmesser 4.10 m
Spannweite 29.00 m
Form Box + pan
Hersteller SPXS
Bus-Typ Starlink V2M
Phasenstatus In Orbit
Besitzer/Staat SPXS/US

Große Konstellationen

Loading constellations...